Regional Weather Roundup
Issued by NWS State College, PA

Home | Current Version | Previous Version | Graphics & Text | Print | Product List | Glossary Off
Versions: 1 2 3 4 5 6 7 8 9 10 11 12 13 14 15 16 17 18 19 20 21 22 23 24 25 26 27 28 29 30 31 32 33 34 35 36 37 38 39 40 41 42 43 44 45 46 47 48 49 50

000
ASUS41 KCTP 260810
RWRCTP

REGIONAL WEATHER ROUNDUP
NATIONAL WEATHER SERVICE STATE COLLEGE PA
400 AM EDT FRI MAY 26 2017

Note: "fair" indicates few or no clouds below 12,000 feet with no
significant weather and/or obstructions to visibility.

* = STATION THAT DOES NOT REPORT PRECIPITATION /E.G. RAIN...SNOW...ETC/
    THUNDER OR FOG.

PAZ002>004-007>009-013>016-020>023-029>032-260900-
WESTERN PENNSYLVANIA

CITY           SKY/WX    TMP DP  RH WIND       PRES   REMARKS
ERIE           LGT RAIN  55  54  96 W6        29.61R FOG
MEADVILLE      LGT RAIN  55  55 100 W10       29.62R FOG
FRANKLIN*      CLOUDY    54  52  94 W7        29.63R
NEW CASTLE     CLOUDY    57  56  96 W7        29.65R
BEAVER COUNTY  NOT AVBL
BUTLER*        CLOUDY    55  54  94 W8        29.64R
PITTSBURGH INT CLOUDY    57  57 100 W13       29.65R
PITTSBURGH     CLOUDY    57  53  86 W10       29.65R
INDIANA*       CLOUDY    57  57 100 W7        29.66R
LATROBE        CLOUDY    57  57 100 SW8       29.66R
WASHINGTON CO* CLOUDY    57  54  88 W5        29.70R
$$

PAZ004>006-010>012-017>019-024>028-033>037-041-042-045-046-049>053-260900-
CENTRAL PENNSYLVANIA

CITY           SKY/WX    TMP DP  RH WIND       PRES   REMARKS
BRADFORD       LGT RAIN  53  53 100 W5        29.60R FOG
DUBOIS         CLOUDY    54  52  93 W10       29.60R
CLEARFIELD     CLOUDY    55  54  96 SW6       29.61R
JOHNSTOWN      LGT RAIN  54  53  97 W13       29.63R
ALTOONA        CLOUDY    58  55  90 W6        29.62R
STATE COLLEGE  MOCLDY    55  54  94 SW3       29.60R
WILLIAMSPORT   CLOUDY    59  57  93 W7        29.54R
SELINSGROVE    CLOUDY    58  56  93 CALM      29.56R
FT INDIANTOWN  NOT AVBL
CAPITAL CITY   CLEAR     58  54  86 W5        29.56R
HARRISBURG     PTCLDY    58  57  97 NW6       29.56R
YORK           CLEAR     58  56  93 W5        29.58R
$$

PAZ038>040-043-044-047-048-054-055-060>062-067>071-260900-
EASTERN PENNSYLVANIA

CITY           SKY/WX    TMP DP  RH WIND       PRES   REMARKS
SCRANTON       LGT RAIN  58  57  97 NW3       29.52R FOG
MOUNT POCONO   CLOUDY    52  52 100 W7        29.52S
ALLENTOWN      CLOUDY    59  56  89 W3        29.52R
QUAKERTOWN*    CLOUDY    55  55 100 CALM      29.53S
READING        MOCLDY    60  59  96 W8        29.52S
LANCASTER      PTCLDY    58  57  97 W9        29.55R
COATESVILLE    MOSUNNY   57  57 100 W12       29.56R
POTTSTOWN      MOCLDY    55  55 100 NW3       29.54S
BLUE BELL      CLOUDY    55  55 100 CALM      29.53S
DOYLESTOWN     LGT RAIN  56  56 100 W5        29.51R
WILLOW GROVE   NOT AVBL
NORTH PHILA    CLOUDY    59  57  93 W5        29.53S
PHILADELPHIA   MOCLDY    60  57  89 W8        29.53S
$$



USA.gov is the U.S. government's official web portal to all federal, state and local government web resources and services.